JJA907 RKSS-RKPK

Flight info

Callsign JJA907
Flight time 0h 47m
Altitude 24000
Route OSPOT2Q OSPOT Y782 TGU DCT MASTA GAYHA3
Aircraft B738/M-SDE2E3FGHIRWXY/LB1

Departure

Time 2026-04-30 13:44
Airport Gimpo International Airport (RKSS)

Arrival

Time 2026-04-30 14:31
Airport Gimhae International Airport (RKPK)
Time Latitude Longitude Altitude Speed Heading
2026-04-30 13:11 37.55782 126.80250 66 ft 0 kts 49°
2026-04-30 13:30 37.55780 126.80248 66 ft 2 kts 48°
2026-04-30 13:31 37.55753 126.80215 60 ft 3 kts 48°
2026-04-30 13:31 37.55737 126.80160 56 ft 1 kts 135°
2026-04-30 13:32 37.55755 126.80138 56 ft 0 kts 135°
2026-04-30 13:36 37.55742 126.80155 56 ft 6 kts 135°
2026-04-30 13:37 37.55710 126.80194 66 ft 6 kts 135°
2026-04-30 13:37 37.55628 126.80297 63 ft 10 kts 137°
2026-04-30 13:38 37.55457 126.80186 62 ft 16 kts 186°
2026-04-30 13:38 37.55369 126.80263 61 ft 16 kts 135°
2026-04-30 13:38 37.55239 126.80426 59 ft 0 kts 135°
2026-04-30 13:39 37.55183 126.80495 61 ft 11 kts 141°
2026-04-30 13:39 37.55125 126.80494 61 ft 0 kts 219°
2026-04-30 13:40 37.55120 126.80488 61 ft 5 kts 222°
2026-04-30 13:40 37.55083 126.80443 62 ft 10 kts 225°
2026-04-30 13:40 37.55013 126.80355 56 ft 16 kts 225°
2026-04-30 13:40 37.54939 126.80262 58 ft 14 kts 225°
2026-04-30 13:41 37.54908 126.80223 58 ft 0 kts 225°
2026-04-30 13:42 37.54904 126.80218 60 ft 3 kts 225°
2026-04-30 13:42 37.54836 126.80068 57 ft 13 kts 293°
2026-04-30 13:43 37.54861 126.80030 56 ft 0 kts 315°
2026-04-30 13:43 37.54876 126.80012 55 ft 12 kts 315°
2026-04-30 13:43 37.55121 126.79701 56 ft 91 kts 315°
2026-04-30 13:44 37.55742 126.78906 64 ft 159 kts 315°
2026-04-30 13:44 37.56577 126.77830 655 ft 178 kts 314°
2026-04-30 13:44 37.57473 126.76738 1743 ft 172 kts 315°
2026-04-30 13:44 37.58285 126.75724 2907 ft 163 kts 316°
2026-04-30 13:45 37.59938 126.73645 4564 ft 169 kts 314°
2026-04-30 13:45 37.60760 126.72573 5339 ft 171 kts 316°
2026-04-30 13:45 37.61418 126.71320 6053 ft 175 kts 289°
2026-04-30 13:46 37.61708 126.69818 6767 ft 178 kts 276°
2026-04-30 13:46 37.61667 126.68262 7471 ft 178 kts 259°
2026-04-30 13:46 37.61325 126.66766 8197 ft 178 kts 244°
2026-04-30 13:46 37.60618 126.65511 8927 ft 175 kts 226°
2026-04-30 13:47 37.59802 126.64379 9680 ft 174 kts 225°
2026-04-30 13:47 37.58987 126.63257 10363 ft 173 kts 225°
2026-04-30 13:47 37.58176 126.62147 11004 ft 172 kts 224°
2026-04-30 13:47 37.57348 126.61021 11298 ft 195 kts 224°
2026-04-30 13:48 37.56322 126.59688 11290 ft 222 kts 216°
2026-04-30 13:48 37.54822 126.59029 11356 ft 240 kts 185°
2026-04-30 13:48 37.53113 126.58858 11580 ft 257 kts 184°
2026-04-30 13:48 37.51265 126.58655 11757 ft 278 kts 185°
2026-04-30 13:49 37.49261 126.58415 11900 ft 303 kts 185°
2026-04-30 13:49 37.47074 126.58136 12000 ft 329 kts 186°
2026-04-30 13:49 37.44702 126.57821 12014 ft 355 kts 186°
2026-04-30 13:49 37.42230 126.57489 11995 ft 358 kts 186°
2026-04-30 13:50 37.39743 126.57372 11970 ft 359 kts 172°
2026-04-30 13:50 37.34875 126.58776 11985 ft 359 kts 167°
2026-04-30 13:50 37.32560 126.59921 11979 ft 360 kts 149°
2026-04-30 13:51 37.30656 126.61997 12385 ft 367 kts 133°
2026-04-30 13:51 37.29018 126.64472 13199 ft 369 kts 130°
2026-04-30 13:51 37.27420 126.67005 13993 ft 371 kts 130°
2026-04-30 13:51 37.25822 126.69565 14682 ft 374 kts 130°
2026-04-30 13:52 37.24208 126.72145 15379 ft 377 kts 130°
2026-04-30 13:52 37.22577 126.74736 16065 ft 380 kts 130°
2026-04-30 13:52 37.20930 126.77336 16768 ft 381 kts 130°
2026-04-30 13:52 37.19271 126.79940 17458 ft 384 kts 130°
2026-04-30 13:53 37.17594 126.82566 18122 ft 387 kts 130°
2026-04-30 13:53 37.15904 126.85205 18708 ft 390 kts 130°
2026-04-30 13:53 37.14199 126.87864 19290 ft 392 kts 131°
2026-04-30 13:53 37.12486 126.90532 19875 ft 394 kts 131°
2026-04-30 13:54 37.10763 126.93215 20430 ft 397 kts 131°
2026-04-30 13:54 37.09030 126.95910 20967 ft 399 kts 132°
2026-04-30 13:54 37.07278 126.98630 21498 ft 402 kts 132°
2026-04-30 13:54 37.05518 127.01362 22008 ft 404 kts 132°
2026-04-30 13:55 37.03751 127.04103 22546 ft 406 kts 133°
2026-04-30 13:55 37.01971 127.06864 23038 ft 408 kts 133°
2026-04-30 13:55 37.00181 127.09636 23518 ft 411 kts 133°
2026-04-30 13:55 36.98380 127.12424 23905 ft 413 kts 133°
2026-04-30 13:56 36.96560 127.15237 24132 ft 420 kts 133°
2026-04-30 13:56 36.94704 127.18101 24355 ft 426 kts 133°
2026-04-30 13:56 36.92836 127.20986 24738 ft 427 kts 133°
2026-04-30 13:56 36.90962 127.23879 24880 ft 430 kts 134°
2026-04-30 13:57 36.89086 127.26773 24912 ft 428 kts 134°
2026-04-30 13:57 36.87221 127.29651 24920 ft 424 kts 134°
2026-04-30 13:57 36.85362 127.32511 24933 ft 424 kts 134°
2026-04-30 13:57 36.83493 127.35363 24931 ft 424 kts 135°
2026-04-30 13:58 36.81481 127.38039 24939 ft 422 kts 140°
2026-04-30 13:58 36.77215 127.43069 24943 ft 422 kts 141°
2026-04-30 13:58 36.75122 127.45570 24946 ft 423 kts 140°
2026-04-30 13:59 36.73303 127.47786 24917 ft 423 kts 140°
2026-04-30 13:59 36.71206 127.50359 24907 ft 423 kts 140°
2026-04-30 13:59 36.69113 127.52930 24907 ft 423 kts 140°
2026-04-30 13:59 36.67014 127.55501 24908 ft 423 kts 140°
2026-04-30 14:00 36.64916 127.58065 24921 ft 422 kts 140°
2026-04-30 14:00 36.60731 127.63176 24919 ft 422 kts 140°
2026-04-30 14:00 36.58638 127.65729 24924 ft 421 kts 140°
2026-04-30 14:01 36.56549 127.68275 24922 ft 421 kts 140°
2026-04-30 14:01 36.55137 127.69996 24920 ft 420 kts 140°
2026-04-30 14:01 36.52424 127.73298 24904 ft 420 kts 141°
2026-04-30 14:01 36.50329 127.75845 24909 ft 421 kts 140°
2026-04-30 14:02 36.48239 127.78386 24920 ft 421 kts 140°
2026-04-30 14:02 36.46147 127.80925 24919 ft 422 kts 140°
2026-04-30 14:02 36.44044 127.83476 24912 ft 422 kts 140°
2026-04-30 14:02 36.41945 127.86022 24918 ft 422 kts 140°
2026-04-30 14:03 36.40553 127.87708 24921 ft 422 kts 140°
2026-04-30 14:03 36.37744 127.91110 24919 ft 422 kts 140°
2026-04-30 14:03 36.36325 127.92828 24921 ft 422 kts 141°
2026-04-30 14:03 36.34224 127.95371 24919 ft 422 kts 141°
2026-04-30 14:04 36.32152 127.97876 24917 ft 422 kts 141°
2026-04-30 14:04 36.30047 128.00420 24914 ft 423 kts 141°
2026-04-30 14:04 36.27939 128.02963 24915 ft 423 kts 141°
2026-04-30 14:04 36.25830 128.05506 24910 ft 423 kts 141°
2026-04-30 14:05 36.23720 128.08042 24926 ft 423 kts 141°
2026-04-30 14:05 36.21605 128.10583 24921 ft 424 kts 141°
2026-04-30 14:05 36.19484 128.13132 24920 ft 425 kts 141°
2026-04-30 14:05 36.17361 128.15680 24921 ft 425 kts 141°
2026-04-30 14:06 36.15265 128.18200 24909 ft 413 kts 141°
2026-04-30 14:06 36.11250 128.23025 24183 ft 395 kts 141°
2026-04-30 14:07 36.07358 128.27683 23216 ft 385 kts 141°
2026-04-30 14:07 36.05443 128.29972 22667 ft 381 kts 141°
2026-04-30 14:07 36.03548 128.32235 22149 ft 376 kts 141°
2026-04-30 14:08 35.99831 128.36671 21163 ft 368 kts 141°
2026-04-30 14:08 35.97998 128.38855 20689 ft 364 kts 141°
2026-04-30 14:08 35.94382 128.43164 19734 ft 359 kts 141°
2026-04-30 14:09 35.92590 128.45296 19281 ft 356 kts 140°
2026-04-30 14:09 35.90811 128.47412 18815 ft 354 kts 140°
2026-04-30 14:09 35.87284 128.51604 17838 ft 350 kts 140°
2026-04-30 14:10 35.85537 128.53679 17342 ft 347 kts 140°
2026-04-30 14:10 35.83804 128.55734 16861 ft 345 kts 140°
2026-04-30 14:10 35.81962 128.57567 16373 ft 337 kts 155°
2026-04-30 14:10 35.79799 128.58583 15852 ft 334 kts 168°
2026-04-30 14:11 35.77480 128.58860 15277 ft 335 kts 181°
2026-04-30 14:11 35.75143 128.58692 14804 ft 338 kts 185°
2026-04-30 14:11 35.72794 128.58446 14347 ft 340 kts 185°
2026-04-30 14:11 35.70446 128.58191 13884 ft 338 kts 185°
2026-04-30 14:12 35.68115 128.57949 13399 ft 335 kts 185°
2026-04-30 14:12 35.65802 128.57721 12897 ft 332 kts 185°
2026-04-30 14:12 35.63510 128.57504 12419 ft 329 kts 185°
2026-04-30 14:12 35.61231 128.57295 11994 ft 326 kts 185°
2026-04-30 14:13 35.58992 128.57092 11599 ft 321 kts 185°
2026-04-30 14:13 35.56764 128.56891 11195 ft 321 kts 185°
2026-04-30 14:13 35.54529 128.56689 10891 ft 320 kts 185°
2026-04-30 14:13 35.52319 128.56491 10759 ft 318 kts 185°
2026-04-30 14:14 35.50114 128.56293 10613 ft 317 kts 185°
2026-04-30 14:14 35.47947 128.56161 10455 ft 307 kts 178°
2026-04-30 14:14 35.45866 128.56586 10295 ft 300 kts 168°
2026-04-30 14:14 35.43863 128.57164 10153 ft 291 kts 168°
2026-04-30 14:15 35.41919 128.57726 10015 ft 283 kts 167°
2026-04-30 14:15 35.40008 128.58272 9739 ft 281 kts 168°
2026-04-30 14:15 35.38107 128.58808 9419 ft 280 kts 168°
2026-04-30 14:15 35.36212 128.59337 9128 ft 278 kts 168°
2026-04-30 14:16 35.34332 128.59859 8834 ft 276 kts 168°
2026-04-30 14:16 35.32485 128.60370 8549 ft 275 kts 168°
2026-04-30 14:16 35.30601 128.60890 8259 ft 274 kts 168°
2026-04-30 14:16 35.28772 128.61394 7977 ft 273 kts 168°
2026-04-30 14:17 35.26924 128.61902 7695 ft 272 kts 168°
2026-04-30 14:17 35.25083 128.62409 7425 ft 270 kts 167°
2026-04-30 14:17 35.23306 128.62897 7364 ft 254 kts 167°
2026-04-30 14:17 35.21645 128.63418 7216 ft 238 kts 156°
2026-04-30 14:18 35.20189 128.64291 6819 ft 234 kts 162°
2026-04-30 14:18 35.18621 128.64896 6316 ft 238 kts 162°
2026-04-30 14:18 35.15846 128.63878 6024 ft 219 kts 244°
2026-04-30 14:19 35.15647 128.60354 5992 ft 207 kts 290°
2026-04-30 14:19 35.16330 128.58850 5999 ft 203 kts 313°
2026-04-30 14:19 35.17432 128.57797 5917 ft 204 kts 338°
2026-04-30 14:20 35.18802 128.57832 5751 ft 199 kts 27°
2026-04-30 14:20 35.19664 128.59116 5742 ft 205 kts 75°
2026-04-30 14:20 35.18451 128.62245 5691 ft 225 kts 140°
2026-04-30 14:21 35.17119 128.63233 5552 ft 224 kts 156°
2026-04-30 14:21 35.15657 128.63851 5408 ft 222 kts 165°
2026-04-30 14:21 35.12661 128.64603 5151 ft 218 kts 171°
2026-04-30 14:22 35.11221 128.65132 5008 ft 217 kts 144°
2026-04-30 14:22 35.09297 128.67883 4807 ft 211 kts 125°
2026-04-30 14:22 35.08429 128.69270 4680 ft 199 kts 125°
2026-04-30 14:23 35.06809 128.71853 4475 ft 189 kts 126°
2026-04-30 14:23 35.05217 128.74387 4240 ft 187 kts 126°
2026-04-30 14:24 35.04615 128.77244 3855 ft 177 kts 61°
2026-04-30 14:24 35.05459 128.78258 3577 ft 171 kts 19°
2026-04-30 14:25 35.07633 128.78129 3052 ft 147 kts 348°
2026-04-30 14:25 35.09223 128.79034 2808 ft 148 kts 63°
2026-04-30 14:26 35.10420 128.81291 2632 ft 159 kts 47°
2026-04-30 14:26 35.11140 128.82282 2608 ft 155 kts 43°
2026-04-30 14:26 35.12465 128.84322 2607 ft 159 kts 67°
2026-04-30 14:27 35.12932 128.85553 2570 ft 159 kts 56°
2026-04-30 14:27 35.13603 128.86676 2137 ft 164 kts 47°
2026-04-30 14:27 35.14358 128.87674 1766 ft 155 kts 43°
2026-04-30 14:28 35.16115 128.89141 1705 ft 151 kts
2026-04-30 14:28 35.17162 128.89145 1699 ft 152 kts 357°
2026-04-30 14:28 35.18216 128.89125 1709 ft 152 kts 356°
2026-04-30 14:28 35.19274 128.89105 1616 ft 154 kts 357°
2026-04-30 14:29 35.21251 128.89773 1372 ft 151 kts 36°
2026-04-30 14:29 35.21957 128.91607 1038 ft 153 kts 98°
2026-04-30 14:30 35.19235 128.93535 104 ft 147 kts 175°
2026-04-30 14:31 35.17558 128.93742 29 ft 92 kts 173°
2026-04-30 14:31 35.16962 128.93862 22 ft 22 kts 118°
2026-04-30 14:31 35.16994 128.94021 21 ft 21 kts 24°
2026-04-30 14:32 35.17274 128.94017 25 ft 20 kts 353°
2026-04-30 14:32 35.17407 128.93998 24 ft 19 kts 353°
2026-04-30 14:32 35.17537 128.93979 27 ft 18 kts 353°
2026-04-30 14:33 35.17662 128.93969 25 ft 18 kts 357°
2026-04-30 14:33 35.17862 128.94027 22 ft 17 kts 101°
2026-04-30 14:33 35.17795 128.94138 24 ft 16 kts 117°
2026-04-30 14:34 35.17761 128.94285 22 ft 20 kts 105°
2026-04-30 14:34 35.17684 128.94413 25 ft 19 kts 157°
2026-04-30 14:34 35.17554 128.94434 25 ft 19 kts 174°
2026-04-30 14:34 35.17428 128.94451 23 ft 18 kts 174°
2026-04-30 14:35 35.17272 128.94471 22 ft 17 kts 174°